TimeEST,TemperatureF,Dew PointF,Humidity,Sea Level PressureIn,VisibilityMPH,Wind Direction,Wind SpeedMPH,Gust SpeedMPH,PrecipitationIn,Events,Conditions,WindDirDegrees,DateUTC
12:56 AM,54.0,41.0,62,30.33,10.0,SE,4.6,-,N/A,,Overcast,140,2013-11-05 05:56:00
1:56 AM,54.0,41.0,62,30.32,10.0,SE,8.1,-,N/A,,Overcast,140,2013-11-05 06:56:00
2:56 AM,53.1,41.0,64,30.33,10.0,SE,6.9,-,N/A,,Overcast,140,2013-11-05 07:56:00
3:56 AM,55.0,39.9,57,30.34,10.0,SSE,4.6,-,N/A,,Overcast,150,2013-11-05 08:56:00
4:56 AM,53.1,41.0,64,30.35,10.0,ESE,6.9,-,N/A,,Overcast,120,2013-11-05 09:56:00
5:56 AM,53.1,41.0,64,30.35,10.0,SE,5.8,-,N/A,,Overcast,130,2013-11-05 10:56:00
6:56 AM,51.1,39.9,66,30.37,10.0,ESE,4.6,-,N/A,,Mostly Cloudy,120,2013-11-05 11:56:00
7:56 AM,52.0,41.0,66,30.38,10.0,ESE,3.5,-,N/A,,Overcast,120,2013-11-05 12:56:00
8:56 AM,53.1,41.0,64,30.39,10.0,East,3.5,-,N/A,,Overcast,100,2013-11-05 13:56:00
9:56 AM,55.0,39.0,55,30.39,10.0,ESE,5.8,-,N/A,,Overcast,120,2013-11-05 14:56:00
10:56 AM,57.0,39.0,51,30.40,10.0,SSE,6.9,-,N/A,,Mostly Cloudy,160,2013-11-05 15:56:00
11:56 AM,60.1,39.0,46,30.39,10.0,South,4.6,-,N/A,,Mostly Cloudy,170,2013-11-05 16:56:00
12:56 PM,61.0,39.0,44,30.34,10.0,ESE,5.8,-,N/A,,Mostly Cloudy,120,2013-11-05 17:56:00
1:56 PM,62.1,41.0,46,30.33,10.0,SSE,6.9,-,N/A,,Mostly Cloudy,150,2013-11-05 18:56:00
2:56 PM,63.0,41.0,45,30.30,10.0,ESE,6.9,-,N/A,,Mostly Cloudy,120,2013-11-05 19:56:00
3:56 PM,64.0,41.0,43,30.28,10.0,ESE,5.8,-,N/A,,Mostly Cloudy,120,2013-11-05 20:56:00
4:56 PM,63.0,42.1,46,30.26,10.0,SE,6.9,-,N/A,,Mostly Cloudy,130,2013-11-05 21:56:00
5:56 PM,60.1,42.1,51,30.25,10.0,ESE,4.6,-,N/A,,Mostly Cloudy,110,2013-11-05 22:56:00
6:56 PM,57.9,41.0,53,30.25,10.0,SE,6.9,-,N/A,,Mostly Cloudy,130,2013-11-05 23:56:00
7:56 PM,59.0,39.9,49,30.25,10.0,Calm,Calm,-,N/A,,Scattered Clouds,0,2013-11-06 00:56:00
8:56 PM,57.0,39.9,53,30.25,10.0,East,3.5,-,N/A,,Scattered Clouds,90,2013-11-06 01:56:00
9:56 PM,55.0,39.9,57,30.24,10.0,ESE,3.5,-,N/A,,Scattered Clouds,110,2013-11-06 02:56:00
10:56 PM,53.1,39.9,61,30.22,10.0,SE,4.6,-,N/A,,Scattered Clouds,140,2013-11-06 03:56:00
11:56 PM,52.0,39.9,63,30.22,10.0,SE,5.8,-,N/A,,Scattered Clouds,130,2013-11-06 04:56:00